Home > Weather > Oceanside > Past weeks

Flag for USA Past Weather in Oceanside, California, USA — Yesterday and Last 2 Weeks

Now
67 °F

Overcast.


Feels Like: 67 °F
Forecast: 61 / 73 °F
Wind: 3 mph from North

Location: Oceanside Weather Reporting Station

Current Time: Aug 27, 2016 at 8:27:48 AM

Latest Report: Aug 27, 2016 at 7:52 AM


Visibility: 10 mi

Pressure: 29.98 "Hg

Humidity: 68%

Dew Point: 56 °F

Location of OceansideLocation

Past Weather in Oceanside — Graph

°F

Oceanside Temperature Yesterday

Maximum temperature yesterday: 74 °F (at 12:52 PM)
Minimum temperature yesterday: 63 °F (at 9:52 PM)
Average temperature yesterday: 68 °F

High & Low Weather Summary for the Past Weeks

 TemperatureHumidityPressure
High81 °F (Aug 15, 12:52 PM)93% (Aug 17, 4:52 AM)30.04 "Hg (Aug 17, 4:52 AM)
Low58 °F (Aug 17, 4:52 AM)52% (Aug 26, 12:52 PM)29.79 "Hg (Aug 17, 6:52 PM)
Average70 °F73%29.91 "Hg
* Reported Aug 12 6:52 AM — Aug 27 6:52 AM, Oceanside, Weather by CustomWeather, © 2016

Note: Actual official high and low records may vary slightly from our data, if they occured in-between our weather recording intervals... More about our weather records

Advertising

Oceanside Weather History for the Previous 24 Hours

Scroll right to see more
 ConditionsComfort  
Time TempWeatherWind HumidityBarometerVisibility
6:52 AM
Sat, Aug 27
67 °FOvercast.3 mph68%29.96 "Hg10 mi
5:52 AM67 °FOvercast.3 mph68%29.95 "Hg10 mi
4:52 AM67 °FOvercast.No wind68%29.94 "Hg10 mi
3:52 AM67 °FOvercast.3 mph68%29.94 "Hg10 mi
2:52 AM66 °FOvercast.3 mph70%29.94 "Hg10 mi
1:52 AM66 °FOvercast.6 mph70%29.94 "Hg10 mi
12:52 AM67 °FOvercast.No wind68%29.95 "Hg10 mi
11:52 PM
Fri, Aug 26
67 °FOvercast.3 mph71%29.96 "Hg10 mi
10:52 PM65 °FOvercast.No wind70%29.96 "Hg10 mi
10:04 PM64 °FPassing clouds.No wind73%29.96 "Hg10 mi
9:52 PM63 °FPassing clouds.No wind73%29.96 "Hg10 mi
8:52 PM65 °FClear.5 mph73%29.95 "Hg10 mi
7:52 PM66 °FSunny.6 mph68%29.93 "Hg10 mi
6:52 PM68 °FSunny.8 mph65%29.93 "Hg10 mi
5:52 PM69 °FSunny.13 mph61%29.93 "Hg10 mi
4:52 PM71 °FSunny.13 mph59%29.93 "Hg10 mi
3:52 PM72 °FSunny.12 mph55%29.93 "Hg10 mi
2:52 PM73 °FSunny.10 mph53%29.93 "Hg10 mi
1:52 PM72 °FSunny.12 mph55%29.95 "Hg10 mi
12:52 PM74 °FSunny.12 mph52%29.96 "Hg10 mi
11:52 AM72 °FSunny.7 mph55%29.97 "Hg10 mi
10:52 AM70 °FOvercast.3 mph61%29.98 "Hg10 mi
9:52 AM68 °FOvercast.6 mph65%29.98 "Hg10 mi
8:52 AM67 °FOvercast.No wind71%29.97 "Hg9 mi
Weather by CustomWeather, © 2016

See weather overviewHow to use our weather pages